Content
SEND FEEDBACK

Daily
Averages
Monthly
Summary
United States of America

DEDEDO, GUAM


Home > North America > United States > Guam
Elevation: 364 feet     Latitude: 13 33N     Longitude: 144 49E

WEATHER
 
SELECT A DAY
Number of Records: 207,059;   Date Range: 1/1/95 - 4/22/14
 
SHARE

PRINT THIS DATA

[ ← Previous Day ]
WEATHER ALMANAC - JANUARY 3, 2013
[ Next Day → ]
[ °C ]   °F
Weather ElementAverageHighLow
Temperature80.8 °F84.9 °F (12:54 pm)78.8 °F (1:15 am)
Dewpoint72.1 °F77 °F (1:15 am)64.9 °F (5:54 pm)
Humidity75.5 %94 % (1:15 am)55 % (3:54 pm)
Barometer29.85 in29.92 in (8:01 am)29.78 in (3:54 pm)
Wind Speed15.9 mph24.2 mph (1:54 pm)
Wind Gust29.9 mph (12:54 pm)
Weather ElementAverage
Visibility9.5 mi
Wind DirectionENE (75.4 °)

Weather ElementTotal
Precipitation0.17 in
Cooling Degree Days16.9 (Base 65)
Growing Degree Days31.9 (Base 50)
Averaged from 28 records on January 3, 2013
WEATHER CONDITIONS BREAKOUT
WIND DIRECTION BREAKOUT
WEATHER BY HOUR - JANUARY 3, 2013
[ °C ]   °F
Local TimeTemperatureDewpointHumidityBarometerVisibilityWind DirectionWind SpeedGust SpeedPrecipitationEventsConditions
1:15 AM78.8 °F77.0 °F94 %29.90 in4.0 miEast (80°)13.8 mph19.6 mph0.04 inRainLight Rain
1:24 AM78.8 °F75.2 °F89 %29.90 in9.0 miEast (80°)15.0 mph25.3 mph0.04 inRainLight Rain
1:54 AM79.0 °F75.0 °F88 %29.87 in10.0 miEast (80°)19.6 mph0.05 inScattered Clouds
2:54 AM79.0 °F75.9 °F90 %29.85 in9.0 miEast (80°)11.5 mph21.9 mph0.00 inRainLight Rain
3:01 AM78.8 °F75.2 °F89 %29.87 in10.0 miEast (80°)11.5 mph0.00 inMostly Cloudy
3:54 AM80.1 °F73.9 °F81 %29.84 in10.0 miENE (70°)16.1 mph26.5 mph0.00 inScattered Clouds
4:54 AM79.0 °F75.0 °F88 %29.85 in10.0 miEast (80°)17.3 mphClear
5:54 AM79.0 °F73.9 °F84 %29.86 in10.0 miEast (80°)12.7 mphPartly Cloudy
6:54 AM79.0 °F72.0 °F79 %29.87 in10.0 miEast (80°)17.3 mphPartly Cloudy
7:54 AM80.1 °F73.9 °F81 %29.89 in8.0 miEast (80°)17.3 mph25.3 mph0.00 inRainLight Rain
8:01 AM80.6 °F73.4 °F79 %29.92 in10.0 miEast (80°)20.7 mph25.3 mph0.00 inRainLight Rain
8:35 AM78.8 °F75.2 °F89 %29.92 in6.0 miENE (70°)12.7 mph0.01 inRainLight Rain
8:54 AM80.1 °F75.0 °F85 %29.91 in10.0 miENE (70°)17.3 mph24.2 mph0.01 inRainLight Rain
9:54 AM81.0 °F72.0 °F74 %29.90 in10.0 miEast (80°)15.0 mph0.01 inScattered Clouds
10:54 AM82.9 °F73.0 °F72 %29.89 in10.0 miENE (70°)21.9 mph27.6 mph0.01 inRainLight Rain
11:54 AM84.0 °F73.0 °F69 %29.86 in10.0 miEast (80°)16.1 mph24.2 mphMostly Cloudy
12:54 PM84.9 °F72.0 °F65 %29.84 in10.0 miEast (80°)23.0 mph29.9 mphScattered Clouds
1:54 PM84.9 °F70.0 °F61 %29.81 in10.0 miENE (70°)24.2 mph29.9 mph0.00 inClear
2:54 PM84.0 °F71.1 °F65 %29.79 in10.0 miENE (70°)19.6 mph25.3 mphPartly Cloudy
3:54 PM84.9 °F66.9 °F55 %29.78 in10.0 miENE (70°)20.7 mph29.9 mphPartly Cloudy
4:54 PM82.9 °F68.0 °F60 %29.79 in10.0 miENE (70°)16.1 mph23.0 mphScattered Clouds
5:54 PM82.0 °F64.9 °F56 %29.80 in10.0 miENE (70°)9.2 mphScattered Clouds
6:54 PM81.0 °F66.9 °F62 %29.81 in10.0 miEast (80°)16.1 mphMostly Cloudy
7:54 PM80.1 °F69.1 °F69 %29.82 in10.0 miENE (70°)13.8 mph21.9 mphPartly Cloudy
8:54 PM80.1 °F70.0 °F71 %29.84 in10.0 miENE (70°)12.7 mphScattered Clouds
9:54 PM80.1 °F70.0 °F71 %29.84 in10.0 miENE (70°)12.7 mphScattered Clouds
10:54 PM80.1 °F70.0 °F71 %29.83 in10.0 miEast (80°)10.4 mphPartly Cloudy
11:54 PM79.0 °F71.1 °F77 %29.82 in10.0 miENE (70°)11.5 mphPartly Cloudy
Hourly data recorded from PGUM, located 4.03 miles away from Dededo, Guam







STORIES FROM OUR PARTNERS